Current weather by "City, St" or "zip code"  
 

Current Conditions: Clayton Lake, ME

NULL


52.0 F

Last Updated on Oct 23 2020, 10:16 pm EDT
Humidity: 79%
Wind Speed: S 12.7 G 27.6 mph
Barometer 29.95 in
Dewpoint: 45.5 F
Visibility: NULL mi
Precip: --
Heat Index: NA
Wind Chill: 48 F
Current conditions at:

Clayton Lake, ME (K40B)

Lat: 46.61667 Lon: 69.53333

Local Radar Image active severe weather and emergency alerts image image weather storm and storm spotter reports image weather observation monitoring service image
Local
Radar
Active
Alerts
Storm Reports Obs
Monitoring

Sign-up For Email & Text Message Weather Alert Notification Services



Advertise Here

Observation History for Clayton Lake, ME


Time Wind
(mph)
Vis
(mi)
Weather Precip (in) Temperature (F) Relative
Humidity
Wind
Chill
(F)
Heat
Index
(F)
Pressure
Air Dwpt altimeter
(in)
sea level
(mb)
Rmks
10:16 pm EDT S 12.7 G 27.6 NULL NULL -- 52.0 45.5 79% 48 NA 29.95 1014.4
9:16 pm EDT S 16.1 G 28.8 NULL NULL -- 52.0 45.0 77% 47 NA 29.96 1015.1
7:16 pm EDT S 16.1 G 31.1 NULL NULL -- 53.0 45.5 75% 48 NA 29.99 1016.3
3:16 pm EDT 3.5 G 16.1 NULL NULL -- 58.0 47.7 70% NA NA 30.06 1018.8
1:16 pm EDT 5.8 G 13.8 NULL NULL -- 51.0 45.7 83% 49 NA 30.11 1020.8
9:16 am EDT N 0.0 NULL NULL -- 45.0 % NA NA 30.24 1025.3
7:16 am EDT 2.3 NULL NULL -- 41.0 % NA NA 30.26 1026.1
5:16 am EDT N 0.0 NULL NULL -- 41.0 % NA NA 30.26 1026.1
4:16 am EDT 2.3 NULL NULL -- 41.0 % NA NA 30.26 1026.1
2:16 am EDT N 0.0 NULL NULL -- 41.0 % NA NA 30.30 1027.2
1:16 am EDT N 0.0 NULL NULL -- 41.0 % NA NA 30.30 1027.1
12:16 am EDT N 0.0 NULL NULL -- 39.0 % NA NA 30.30 1027.0

Regional Weather Observation


Caribou, Caribou Municipal Airport, ME (KCAR)

Overcast
53.0 F

Presque Isle, ME (KPQI)

Overcast
53.0 F

Frenchville, Northern Aroostook Regional Airport, ME (KFVE)

Overcast
50.0 F

Greenville, ME (KGNR)

NULL
50.0 F

Millinocket, Millinocket Municipal Airport, ME (KMLT)

Overcast
53.0 F

Houlton, Houlton International Airport, ME (KHUL)

Overcast
53.0 F